| time (UTC) | temp F | wind direction | speed MPH | gust MPH | rain 1hr in | rain 24hr in | rain mn in | humidity % | barometer mb |
| 20260510160154 | 57 | 316 | 1.0 | 2.0 | 0.00 | 0.00 | 0.00 | 87 | 1011.8 |
| 20260510155650 | 57 | 299 | 0.0 | 1.0 | 0.00 | 0.00 | 0.00 | 87 | 1011.9 |
| 20260510155145 | 57 | 163 | 1.0 | 1.0 | 0.00 | 0.00 | 0.00 | 87 | 1011.7 |
| 20260510154641 | 56 | 55 | 0.0 | 1.0 | 0.00 | 0.00 | 0.00 | 87 | 1011.6 |
| 20260510154137 | 57 | 340 | 0.0 | 0.0 | 0.00 | 0.00 | 0.00 | 87 | 1011.7 |
| 20260510153638 | 57 | 326 | 0.0 | 0.0 | 0.00 | 0.00 | 0.00 | 88 | 1011.7 |
| 20260510153135 | 57 | 320 | 0.0 | 0.0 | 0.00 | 0.00 | 0.00 | 87 | 1011.7 |
| 20260510152631 | 57 | 26 | 0.0 | 0.0 | 0.00 | 0.00 | 0.00 | 87 | 1011.5 |
| 20260510152127 | 57 | 318 | 1.0 | 1.0 | 0.00 | 0.00 | 0.00 | 86 | 1011.7 |
| 20260510151624 | 57 | 148 | 2.0 | 2.0 | 0.00 | 0.00 | 0.00 | 86 | 1011.4 |
| 20260510151122 | 57 | 19 | 0.0 | 1.0 | 0.00 | 0.00 | 0.00 | 84 | 1011.4 |
| 20260510150622 | 57 | 320 | 0.0 | 0.0 | 0.00 | 0.00 | 0.00 | 84 | 1011.3 |
| 20260510150118 | 57 | 5 | 0.0 | 1.0 | 0.00 | 0.00 | 0.00 | 86 | 1011.2 |
| 20260510145615 | 57 | 335 | 0.0 | 0.0 | 0.00 | 0.00 | 0.00 | 85 | 1011.0 |
| 20260510145111 | 57 | 302 | 0.0 | 0.0 | 0.00 | 0.00 | 0.00 | 85 | 1011.0 |
| 20260510144607 | 58 | 135 | 2.0 | 2.0 | 0.00 | 0.00 | 0.00 | 85 | 1011.0 |
| 20260510144104 | 58 | 298 | 1.0 | 1.0 | 0.00 | 0.00 | 0.00 | 86 | 1011.0 |
| 20260510143559 | 58 | 196 | 1.0 | 2.0 | 0.00 | 0.00 | 0.00 | 86 | 1010.7 |
| 20260510143056 | 58 | 198 | 1.0 | 2.0 | 0.00 | 0.00 | 0.00 | 86 | 1010.8 |
| 20260510142552 | 58 | 237 | 1.0 | 1.0 | 0.00 | 0.00 | 0.00 | 87 | 1010.9 |
| 20260510142049 | 58 | 329 | 1.0 | 1.0 | 0.00 | 0.00 | 0.00 | 87 | 1010.8 |
| 20260510141546 | 58 | 6 | 2.0 | 2.0 | 0.00 | 0.00 | 0.00 | 87 | 1010.7 |
| 20260510141044 | 58 | 117 | 2.0 | 3.0 | 0.00 | 0.00 | 0.00 | 86 | 1010.9 |
| 20260510140540 | 58 | 307 | 1.0 | 2.0 | 0.00 | 0.00 | 0.00 | 87 | 1010.8 |
| 20260510140039 | 59 | 182 | 3.0 | 3.0 | 0.00 | 0.00 | 0.00 | 87 | 1010.6 |
| 20260510135535 | 59 | 341 | 1.0 | 1.0 | 0.00 | 0.00 | 0.00 | 85 | 1010.6 |
| 20260510135032 | 59 | 292 | 1.0 | 1.0 | 0.00 | 0.00 | 0.00 | 84 | 1010.3 |
| 20260510134529 | 59 | 292 | 1.0 | 1.0 | 0.00 | 0.00 | 0.00 | 83 | 1010.3 |
| 20260510134026 | 59 | 119 | 1.0 | 1.0 | 0.00 | 0.00 | 0.00 | 86 | 1010.3 |
| 20260510133521 | 59 | 2 | 0.0 | 0.0 | 0.00 | 0.00 | 0.00 | 85 | 1010.2 |
| 20260510133018 | 59 | 354 | 0.0 | 0.0 | 0.00 | 0.00 | 0.00 | 85 | 1010.0 |
| 20260510132515 | 59 | 173 | 2.0 | 2.0 | 0.00 | 0.00 | 0.00 | 84 | 1010.2 |
| 20260510132012 | 58 | 319 | 1.0 | 1.0 | 0.00 | 0.00 | 0.00 | 85 | 1010.4 |
| 20260510131509 | 58 | 134 | 0.0 | 1.0 | 0.00 | 0.00 | 0.00 | 84 | 1010.2 |
| 20260510131006 | 58 | 297 | 0.0 | 1.0 | 0.00 | 0.00 | 0.00 | 84 | 1010.1 |
| 20260510130502 | 58 | 104 | 0.0 | 1.0 | 0.00 | 0.00 | 0.00 | 88 | 1010.1 |
| 20260510130000 | 58 | 217 | 1.0 | 1.0 | 0.00 | 0.00 | 0.00 | 87 | 1010.2 |
| 20260510125456 | 57 | 204 | 1.0 | 1.0 | 0.00 | 0.00 | 0.00 | 88 | 1010.3 |
| 20260510124953 | 57 | 302 | 1.0 | 1.0 | 0.00 | 0.00 | 0.00 | 87 | 1010.1 |
| 20260510124449 | 56 | 113 | 1.0 | 1.0 | 0.00 | 0.00 | 0.00 | 88 | 1010.2 |
| 20260510123946 | 56 | 323 | 0.0 | 0.0 | 0.00 | 0.00 | 0.00 | 90 | 1010.3 |
| 20260510123442 | 56 | 283 | 1.0 | 1.0 | 0.00 | 0.00 | 0.00 | 89 | 1010.2 |
| 20260510122938 | 56 | 242 | 0.0 | 1.0 | 0.00 | 0.00 | 0.00 | 92 | 1010.2 |
| 20260510122433 | 55 | 329 | 0.0 | 1.0 | 0.00 | 0.00 | 0.00 | 91 | 1010.3 |
| 20260510121929 | 55 | 230 | 1.0 | 1.0 | 0.00 | 0.00 | 0.00 | 92 | 1010.1 |
| 20260510121427 | 55 | 144 | 3.0 | 3.0 | 0.00 | 0.00 | 0.00 | 92 | 1010.1 |
| 20260510120925 | 54 | 348 | 0.0 | 0.0 | 0.00 | 0.00 | 0.00 | 92 | 1010.1 |
| 20260510120422 | 54 | 298 | 1.0 | 1.0 | 0.00 | 0.00 | 0.00 | 93 | 1010.1 |
| 20260510115917 | 54 | 324 | 1.0 | 1.0 | 0.00 | 0.00 | 0.00 | 93 | 1009.9 |
| 20260510115414 | 54 | 336 | 0.0 | 0.0 | 0.00 | 0.00 | 0.00 | 92 | 1010.2 |
| 20260510114910 | 54 | 192 | 1.0 | 2.0 | 0.00 | 0.00 | 0.00 | 93 | 1010.0 |
| 20260510114408 | 54 | 329 | 0.0 | 0.0 | 0.00 | 0.00 | 0.00 | 93 | 1010.3 |
| 20260510113903 | 53 | 306 | 1.0 | 1.0 | 0.00 | 0.00 | 0.00 | 94 | 1010.3 |
| 20260510113359 | 53 | 207 | 1.0 | 2.0 | 0.00 | 0.00 | 0.00 | 93 | 1010.2 |
| 20260510112856 | 53 | 288 | 0.0 | 1.0 | 0.00 | 0.00 | 0.00 | 93 | 1010.2 |
| 20260510112353 | 53 | 343 | 0.0 | 1.0 | 0.00 | 0.00 | 0.00 | 94 | 1010.0 |
| 20260510111849 | 53 | 280 | 1.0 | 2.0 | 0.00 | 0.00 | 0.00 | 95 | 1009.8 |
| 20260510111345 | 52 | 329 | 0.0 | 0.0 | 0.00 | 0.00 | 0.00 | 99 | 1009.7 |
| 20260510110840 | 51 | 302 | 0.0 | 0.0 | 0.00 | 0.00 | 0.00 | 99 | 1009.9 |
| 20260510110338 | 51 | 338 | 0.0 | 0.0 | 0.00 | 0.00 | 0.00 | 99 | 1009.8 |
| 20260510105834 | 51 | 338 | 0.0 | 0.0 | 0.00 | 0.00 | 0.00 | 99 | 1009.7 |
| 20260510105333 | 51 | 341 | 0.0 | 0.0 | 0.00 | 0.00 | 0.00 | 99 | 1009.6 |
| 20260510104830 | 51 | 331 | 0.0 | 0.0 | 0.00 | 0.00 | 0.00 | 99 | 1009.4 |
| 20260510104327 | 51 | 324 | 1.0 | 1.0 | 0.00 | 0.00 | 0.00 | 99 | 1009.6 |
| 20260510103823 | 50 | 346 | 0.0 | 0.0 | 0.00 | 0.00 | 0.00 | 99 | 1009.5 |
| 20260510103320 | 50 | 337 | 0.0 | 0.0 | 0.00 | 0.00 | 0.00 | 99 | 1009.5 |
| 20260510102815 | 50 | 334 | 0.0 | 0.0 | 0.00 | 0.00 | 0.00 | 99 | 1009.5 |
| 20260510102312 | 50 | 305 | 1.0 | 1.0 | 0.00 | 0.00 | 0.00 | 99 | 1009.3 |
| 20260510101809 | 50 | 357 | 1.0 | 2.0 | 0.00 | 0.00 | 0.00 | 99 | 1009.1 |
| 20260510101307 | 50 | 7 | 1.0 | 1.0 | 0.00 | 0.00 | 0.00 | 99 | 1009.2 |
| 20260510100802 | 50 | 336 | 1.0 | 1.0 | 0.00 | 0.00 | 0.00 | 99 | 1009.1 |
| 20260510100301 | 50 | 353 | 1.0 | 2.0 | 0.00 | 0.00 | 0.00 | 99 | 1009.2 |
| 20260510095756 | 50 | 335 | 1.0 | 1.0 | 0.00 | 0.00 | 0.00 | 99 | 1008.7 |
| 20260510095251 | 50 | 4 | 0.0 | 0.0 | 0.00 | 0.00 | 0.00 | 99 | 1008.7 |
| 20260510094751 | 50 | 357 | 0.0 | 1.0 | 0.00 | 0.00 | 0.00 | 99 | 1008.7 |
| 20260510094246 | 50 | 351 | 1.0 | 1.0 | 0.00 | 0.00 | 0.00 | 99 | 1008.6 |
| 20260510093742 | 50 | 342 | 1.0 | 2.0 | 0.00 | 0.00 | 0.00 | 99 | 1008.4 |
| 20260510093239 | 50 | 312 | 1.0 | 1.0 | 0.00 | 0.00 | 0.00 | 99 | 1008.4 |
| 20260510092736 | 50 | 331 | 0.0 | 0.0 | 0.00 | 0.00 | 0.00 | 99 | 1008.3 |
| 20260510092231 | 50 | 311 | 1.0 | 1.0 | 0.00 | 0.00 | 0.00 | 99 | 1008.2 |
| 20260510091727 | 50 | 332 | 1.0 | 1.0 | 0.00 | 0.00 | 0.00 | 99 | 1008.2 |
| 20260510091224 | 50 | 329 | 0.0 | 0.0 | 0.00 | 0.00 | 0.00 | 99 | 1008.0 |
| 20260510090721 | 50 | 341 | 0.0 | 0.0 | 0.00 | 0.00 | 0.00 | 99 | 1007.9 |
| 20260510090218 | 50 | 352 | 0.0 | 0.0 | 0.00 | 0.00 | 0.00 | 99 | 1008.5 |
| 20260510085713 | 50 | 353 | 0.0 | 0.0 | 0.00 | 0.00 | 0.00 | 99 | 1008.2 |
| 20260510085208 | 50 | 350 | 1.0 | 1.0 | 0.00 | 0.00 | 0.00 | 99 | 1008.5 |
| 20260510084704 | 50 | 347 | 0.0 | 1.0 | 0.00 | 0.00 | 0.00 | 99 | 1008.6 |
| 20260510084201 | 50 | 341 | 1.0 | 1.0 | 0.00 | 0.00 | 0.00 | 99 | 1008.4 |
| 20260510083658 | 51 | 353 | 1.0 | 1.0 | 0.00 | 0.00 | 0.00 | 99 | 1008.6 |
| 20260510083155 | 51 | 330 | 1.0 | 1.0 | 0.00 | 0.00 | 0.00 | 99 | 1008.6 |
| 20260510082651 | 51 | 357 | 0.0 | 1.0 | 0.00 | 0.00 | 0.00 | 99 | 1008.6 |
| 20260510082146 | 51 | 342 | 1.0 | 1.0 | 0.00 | 0.00 | 0.00 | 99 | 1008.5 |
| 20260510081642 | 51 | 333 | 0.0 | 0.0 | 0.00 | 0.00 | 0.00 | 99 | 1008.3 |
| 20260510081138 | 51 | 319 | 0.0 | 0.0 | 0.00 | 0.00 | 0.00 | 99 | 1008.0 |
| 20260510080637 | 51 | 11 | 0.0 | 0.0 | 0.00 | 0.00 | 0.00 | 99 | 1007.5 |
| 20260510080134 | 50 | 331 | 0.0 | 0.0 | 0.00 | 0.00 | 0.00 | 99 | 1007.9 |
| 20260510075631 | 50 | 2 | 0.0 | 1.0 | 0.00 | 0.00 | 0.00 | 99 | 1008.0 |
| 20260510075128 | 50 | 3 | 0.0 | 0.0 | 0.00 | 0.00 | 0.00 | 99 | 1008.4 |
| 20260510074625 | 50 | 4 | 0.0 | 0.0 | 0.00 | 0.00 | 0.00 | 99 | 1008.5 |
| 20260510074121 | 50 | 9 | 0.0 | 0.0 | 0.00 | 0.00 | 0.00 | 99 | 1008.8 |
| 20260510073617 | 51 | 13 | 0.0 | 0.0 | 0.00 | 0.00 | 0.00 | 99 | 1008.8 |
| 20260510073114 | 51 | 346 | 0.0 | 0.0 | 0.00 | 0.00 | 0.00 | 99 | 1009.2 |
| 20260510072610 | 51 | 345 | 0.0 | 0.0 | 0.00 | 0.00 | 0.00 | 99 | 1009.2 |
| 20260510072106 | 51 | 358 | 0.0 | 0.0 | 0.00 | 0.00 | 0.00 | 99 | 1009.3 |
| 20260510071557 | 51 | 358 | 0.0 | 0.0 | 0.00 | 0.00 | 0.00 | 99 | 1009.3 |
| 20260510071055 | 51 | 344 | 0.0 | 0.0 | 0.00 | 0.00 | 0.00 | 99 | 1009.4 |
| 20260510070552 | 51 | 335 | 0.0 | 0.0 | 0.00 | 0.00 | 0.00 | 99 | 1009.4 |
| 20260510070049 | 51 | 351 | 0.0 | 0.0 | 0.00 | 0.00 | 0.00 | 99 | 1009.0 |
| 20260510065545 | 51 | 85 | 1.0 | 1.0 | 0.00 | 0.00 | 0.00 | 99 | 1009.0 |
| 20260510065041 | 51 | 329 | 1.0 | 1.0 | 0.00 | 0.00 | 0.00 | 99 | 1009.1 |
| 20260510064538 | 51 | 330 | 0.0 | 1.0 | 0.00 | 0.00 | 0.00 | 99 | 1009.0 |
| 20260510064035 | 51 | 339 | 0.0 | 0.0 | 0.00 | 0.00 | 0.00 | 99 | 1009.0 |
| 20260510063531 | 51 | 336 | 0.0 | 0.0 | 0.00 | 0.00 | 0.00 | 99 | 1008.8 |
| 20260510063029 | 51 | 342 | 1.0 | 1.0 | 0.00 | 0.00 | 0.00 | 99 | 1009.0 |
| 20260510062525 | 51 | 325 | 1.0 | 1.0 | 0.00 | 0.00 | 0.00 | 99 | 1008.7 |
| 20260510062019 | 51 | 347 | 1.0 | 1.0 | 0.00 | 0.00 | 0.00 | 99 | 1008.8 |
| 20260510061516 | 51 | 347 | 1.0 | 1.0 | 0.00 | 0.00 | 0.00 | 98 | 1008.6 |
| 20260510061013 | 51 | 11 | 0.0 | 0.0 | 0.00 | 0.00 | 0.00 | 97 | 1008.7 |
| 20260510060510 | 52 | 339 | 0.0 | 0.0 | 0.00 | 0.00 | 0.00 | 95 | 1008.7 |
| 20260510060006 | 52 | 316 | 0.0 | 0.0 | 0.00 | 0.00 | 0.00 | 95 | 1008.8 |
| 20260510055502 | 52 | 325 | 0.0 | 0.0 | 0.00 | 0.00 | 0.00 | 95 | 1008.7 |
| 20260510055000 | 52 | 312 | 0.0 | 0.0 | 0.00 | 0.00 | 0.00 | 95 | 1009.0 |
| 20260510054455 | 52 | 310 | 0.0 | 0.0 | 0.00 | 0.00 | 0.00 | 95 | 1008.6 |
| 20260510053951 | 52 | 336 | 1.0 | 1.0 | 0.00 | 0.00 | 0.00 | 95 | 1008.4 |
| 20260510053446 | 52 | 323 | 0.0 | 0.0 | 0.00 | 0.00 | 0.00 | 94 | 1008.6 |
| 20260510052942 | 52 | 312 | 0.0 | 1.0 | 0.00 | 0.00 | 0.00 | 93 | 1008.5 |
| 20260510052438 | 52 | 289 | 1.0 | 2.0 | 0.00 | 0.00 | 0.00 | 94 | 1008.6 |
| 20260510051935 | 52 | 328 | 0.0 | 0.0 | 0.00 | 0.00 | 0.00 | 94 | 1008.6 |
| 20260510051431 | 52 | 320 | 1.0 | 1.0 | 0.00 | 0.00 | 0.00 | 96 | 1008.7 |
| 20260510050927 | 51 | 331 | 0.0 | 0.0 | 0.00 | 0.00 | 0.00 | 97 | 1008.5 |
| 20260510050424 | 51 | 6 | 0.0 | 1.0 | 0.00 | 0.00 | 0.00 | 97 | 1008.4 |
| 20260510045922 | 51 | 338 | 1.0 | 1.0 | 0.00 | 0.00 | 0.00 | 98 | 1008.7 |
| 20260510045419 | 51 | 341 | 1.0 | 1.0 | 0.00 | 0.00 | 0.00 | 98 | 1008.7 |
| 20260510044915 | 51 | 358 | 0.0 | 0.0 | 0.00 | 0.00 | 0.00 | 99 | 1008.6 |
| 20260510044412 | 51 | 336 | 0.0 | 0.0 | 0.00 | 0.00 | 0.00 | 98 | 1008.8 |
| 20260510043909 | 51 | 350 | 1.0 | 1.0 | 0.00 | 0.00 | 0.00 | 98 | 1008.7 |
| 20260510043405 | 51 | 335 | 0.0 | 0.0 | 0.00 | 0.00 | 0.00 | 98 | 1008.6 |
| 20260510042903 | 51 | 330 | 1.0 | 1.0 | 0.00 | 0.00 | 0.00 | 98 | 1008.7 |
| 20260510042359 | 51 | 356 | 1.0 | 1.0 | 0.00 | 0.00 | 0.00 | 98 | 1008.5 |
| 20260510041855 | 52 | 346 | 1.0 | 1.0 | 0.00 | 0.00 | 0.00 | 96 | 1008.5 |
| 20260510041352 | 52 | 330 | 1.0 | 1.0 | 0.00 | 0.00 | 0.00 | 94 | 1008.6 |
| 20260510040850 | 52 | 305 | 1.0 | 1.0 | 0.00 | 0.00 | 0.00 | 93 | 1008.8 |
| 20260510040347 | 53 | 322 | 1.0 | 1.0 | 0.00 | 0.00 | 0.00 | 92 | 1008.8 |
| 20260510035842 | 53 | 320 | 0.0 | 0.0 | 0.00 | 0.25 | 0.25 | 91 | 1008.7 |
| 20260510035338 | 53 | 301 | 1.0 | 1.0 | 0.00 | 0.25 | 0.25 | 92 | 1008.5 |
| 20260510034833 | 52 | 321 | 1.0 | 1.0 | 0.00 | 0.25 | 0.25 | 93 | 1008.6 |
| 20260510034332 | 52 | 312 | 0.0 | 0.0 | 0.00 | 0.25 | 0.25 | 94 | 1008.5 |
| 20260510033828 | 52 | 341 | 0.0 | 0.0 | 0.00 | 0.25 | 0.25 | 92 | 1008.5 |
| 20260510033325 | 53 | 310 | 1.0 | 1.0 | 0.00 | 0.25 | 0.25 | 93 | 1008.5 |
| 20260510032821 | 53 | 300 | 1.0 | 1.0 | 0.00 | 0.25 | 0.25 | 92 | 1008.5 |
| 20260510032318 | 53 | 171 | 1.0 | 3.0 | 0.00 | 0.25 | 0.25 | 92 | 1008.7 |
| 20260510031813 | 52 | 229 | 2.0 | 2.0 | 0.00 | 0.25 | 0.25 | 93 | 1008.7 |
| 20260510031309 | 53 | 3 | 0.0 | 0.0 | 0.00 | 0.25 | 0.25 | 94 | 1008.6 |
| 20260510030803 | 53 | 350 | 0.0 | 0.0 | 0.00 | 0.25 | 0.25 | 92 | 1008.7 |
| 20260510030300 | 53 | 289 | 0.0 | 1.0 | 0.00 | 0.25 | 0.25 | 91 | 1008.7 |
| 20260510025757 | 53 | 322 | 0.0 | 0.0 | 0.00 | 0.25 | 0.25 | 91 | 1008.9 |
| 20260510025255 | 53 | 243 | 1.0 | 1.0 | 0.00 | 0.25 | 0.25 | 92 | 1008.6 |
| 20260510024751 | 53 | 310 | 0.0 | 0.0 | 0.00 | 0.25 | 0.25 | 93 | 1008.7 |
| 20260510024248 | 53 | 162 | 1.0 | 2.0 | 0.00 | 0.25 | 0.25 | 92 | 1008.7 |
| 20260510023744 | 52 | 160 | 1.0 | 1.0 | 0.00 | 0.25 | 0.25 | 93 | 1008.6 |
| 20260510023241 | 52 | 286 | 1.0 | 1.0 | 0.00 | 0.25 | 0.25 | 95 | 1008.8 |
| 20260510022738 | 52 | 256 | 1.0 | 1.0 | 0.00 | 0.25 | 0.25 | 94 | 1008.6 |
| 20260510022238 | 53 | 299 | 1.0 | 1.0 | 0.00 | 0.25 | 0.25 | 94 | 1008.8 |
| 20260510021732 | 53 | 337 | 0.0 | 0.0 | 0.00 | 0.25 | 0.25 | 93 | 1008.5 |
| 20260510021230 | 53 | 316 | 0.0 | 1.0 | 0.00 | 0.25 | 0.25 | 92 | 1008.8 |
| 20260510020731 | 53 | 311 | 1.0 | 2.0 | 0.00 | 0.25 | 0.25 | 92 | 1008.9 |
| 20260510020226 | 53 | 351 | 0.0 | 0.0 | 0.00 | 0.25 | 0.25 | 94 | 1008.6 |
| 20260510015722 | 52 | 249 | 1.0 | 1.0 | 0.00 | 0.25 | 0.25 | 94 | 1008.4 |
| 20260510015218 | 52 | 142 | 1.0 | 1.0 | 0.00 | 0.25 | 0.25 | 96 | 1008.5 |
| 20260510014714 | 51 | 351 | 0.0 | 0.0 | 0.00 | 0.25 | 0.25 | 99 | 1008.5 |
| 20260510014212 | 51 | 346 | 0.0 | 0.0 | 0.00 | 0.25 | 0.25 | 99 | 1008.7 |
| 20260510013712 | 51 | 227 | 1.0 | 1.0 | 0.00 | 0.25 | 0.25 | 99 | 1008.9 |
| 20260510013208 | 50 | 258 | 2.0 | 2.0 | 0.00 | 0.25 | 0.25 | 99 | 1009.0 |
| 20260510012702 | 50 | 358 | 0.0 | 0.0 | 0.00 | 0.25 | 0.25 | 99 | 1008.7 |
| 20260510012157 | 50 | 358 | 2.0 | 2.0 | 0.00 | 0.25 | 0.25 | 99 | 1008.7 |
| 20260510011652 | 50 | 348 | 1.0 | 1.0 | 0.00 | 0.25 | 0.25 | 99 | 1008.7 |
| 20260510011148 | 50 | 6 | 1.0 | 1.0 | 0.00 | 0.25 | 0.25 | 99 | 1008.8 |
| 20260510010644 | 50 | 358 | 0.0 | 1.0 | 0.00 | 0.25 | 0.25 | 99 | 1008.6 |
| 20260510010142 | 50 | 357 | 0.0 | 0.0 | 0.00 | 0.25 | 0.25 | 99 | 1008.8 |
| 20260510005637 | 50 | 358 | 0.0 | 0.0 | 0.00 | 0.25 | 0.25 | 99 | 1008.5 |
| 20260510005135 | 50 | 358 | 1.0 | 1.0 | 0.00 | 0.25 | 0.25 | 99 | 1008.8 |
| 20260510004633 | 50 | 353 | 1.0 | 1.0 | 0.00 | 0.25 | 0.25 | 99 | 1008.8 |
| 20260510004131 | 50 | 341 | 1.0 | 1.0 | 0.00 | 0.25 | 0.25 | 99 | 1008.7 |
| 20260510003628 | 50 | 355 | 1.0 | 1.0 | 0.00 | 0.25 | 0.25 | 99 | 1008.7 |
| 20260510003123 | 51 | 355 | 1.0 | 1.0 | 0.00 | 0.25 | 0.25 | 99 | 1008.3 |
| 20260510002618 | 51 | 349 | 1.0 | 1.0 | 0.00 | 0.25 | 0.25 | 99 | 1008.4 |
| 20260510002115 | 51 | 359 | 0.0 | 0.0 | 0.00 | 0.25 | 0.25 | 99 | 1008.0 |
| 20260510001612 | 51 | 359 | 1.0 | 1.0 | 0.00 | 0.25 | 0.25 | 99 | 1008.2 |
| 20260510001111 | 51 | 349 | 1.0 | 1.0 | 0.00 | 0.25 | 0.25 | 99 | 1008.0 |
| 20260510000611 | 51 | 338 | 1.0 | 1.0 | 0.00 | 0.25 | 0.25 | 99 | 1008.2 |
| 20260510000108 | 51 | 1 | 1.0 | 1.0 | 0.00 | 0.25 | 0.25 | 99 | 1007.8 |
| 20260509235604 | 51 | 3 | 1.0 | 1.0 | 0.00 | 0.25 | 0.25 | 99 | 1008.0 |
| 20260509235102 | 51 | 326 | 1.0 | 1.0 | 0.00 | 0.25 | 0.25 | 99 | 1008.2 |
| 20260509234557 | 51 | 351 | 1.0 | 1.0 | 0.00 | 0.25 | 0.25 | 99 | 1008.4 |
| 20260509234055 | 51 | 343 | 0.0 | 0.0 | 0.00 | 0.25 | 0.25 | 99 | 1007.9 |
| 20260509233553 | 51 | 6 | 1.0 | 1.0 | 0.00 | 0.25 | 0.25 | 99 | 1008.0 |
| 20260509233050 | 52 | 354 | 0.0 | 0.0 | 0.00 | 0.25 | 0.25 | 99 | 1007.6 |
| 20260509232546 | 52 | 351 | 1.0 | 1.0 | 0.00 | 0.25 | 0.25 | 99 | 1007.6 |
| 20260509232043 | 52 | 305 | 1.0 | 1.0 | 0.00 | 0.25 | 0.25 | 99 | 1007.8 |
| 20260509231539 | 52 | 340 | 1.0 | 1.0 | 0.00 | 0.25 | 0.25 | 99 | 1007.4 |
| 20260509231037 | 52 | 354 | 1.0 | 1.0 | 0.00 | 0.25 | 0.25 | 99 | 1007.5 |
| 20260509230534 | 53 | 352 | 1.0 | 1.0 | 0.00 | 0.25 | 0.25 | 95 | 1007.5 |
| 20260509230031 | 53 | 306 | 0.0 | 1.0 | 0.00 | 0.25 | 0.25 | 95 | 1007.8 |
| 20260509225526 | 53 | 327 | 0.0 | 0.0 | 0.00 | 0.25 | 0.25 | 95 | 1007.4 |
| 20260509225022 | 53 | 318 | 0.0 | 0.0 | 0.00 | 0.25 | 0.25 | 94 | 1007.6 |
| 20260509224518 | 53 | 335 | 0.0 | 1.0 | 0.00 | 0.25 | 0.25 | 96 | 1007.5 |
| 20260509224015 | 53 | 325 | 0.0 | 0.0 | 0.00 | 0.25 | 0.25 | 97 | 1007.5 |
| 20260509223512 | 53 | 37 | 0.0 | 0.0 | 0.00 | 0.25 | 0.25 | 97 | 1007.7 |
| 20260509223010 | 53 | 333 | 1.0 | 2.0 | 0.00 | 0.25 | 0.25 | 99 | 1007.6 |
| 20260509222505 | 53 | 4 | 0.0 | 0.0 | 0.00 | 0.25 | 0.25 | 98 | 1007.7 |
| 20260509222001 | 53 | 343 | 0.0 | 1.0 | 0.00 | 0.25 | 0.25 | 98 | 1007.7 |
| 20260509221457 | 52 | 347 | 0.0 | 0.0 | 0.00 | 0.25 | 0.25 | 98 | 1008.0 |
| 20260509220953 | 52 | 313 | 0.0 | 0.0 | 0.00 | 0.25 | 0.25 | 97 | 1008.0 |
| 20260509220449 | 52 | 313 | 0.0 | 0.0 | 0.00 | 0.25 | 0.25 | 97 | 1007.9 |
| 20260509215945 | 52 | 291 | 1.0 | 1.0 | 0.00 | 0.25 | 0.25 | 97 | 1008.0 |
| 20260509215441 | 52 | 319 | 0.0 | 0.0 | 0.00 | 0.25 | 0.25 | 97 | 1008.2 |
| 20260509214939 | 52 | 337 | 0.0 | 0.0 | 0.00 | 0.25 | 0.25 | 97 | 1008.2 |
| 20260509214436 | 52 | 325 | 0.0 | 0.0 | 0.00 | 0.25 | 0.25 | 98 | 1008.4 |
| 20260509213932 | 51 | 324 | 0.0 | 0.0 | 0.00 | 0.25 | 0.25 | 99 | 1008.2 |
| 20260509213428 | 51 | 336 | 0.0 | 0.0 | 0.00 | 0.25 | 0.25 | 99 | 1008.2 |
| 20260509212926 | 51 | 345 | 0.0 | 0.0 | 0.00 | 0.25 | 0.25 | 99 | 1008.4 |
| 20260509212423 | 51 | 308 | 1.0 | 1.0 | 0.00 | 0.25 | 0.25 | 99 | 1008.4 |
| 20260509211919 | 51 | 346 | 1.0 | 1.0 | 0.00 | 0.25 | 0.25 | 99 | 1008.6 |
| 20260509211415 | 51 | 329 | 0.0 | 1.0 | 0.00 | 0.25 | 0.25 | 99 | 1008.6 |
| 20260509210911 | 51 | 345 | 0.0 | 0.0 | 0.00 | 0.25 | 0.25 | 98 | 1008.7 |
| 20260509210409 | 51 | 282 | 1.0 | 1.0 | 0.00 | 0.25 | 0.25 | 99 | 1008.7 |
| 20260509205904 | 51 | 328 | 0.0 | 0.0 | 0.00 | 0.25 | 0.25 | 99 | 1008.8 |
| 20260509205404 | 51 | 335 | 0.0 | 0.0 | 0.00 | 0.25 | 0.25 | 99 | 1008.9 |
| 20260509204900 | 51 | 319 | 0.0 | 0.0 | 0.00 | 0.25 | 0.25 | 99 | 1008.9 |
| 20260509204356 | 51 | 320 | 0.0 | 0.0 | 0.00 | 0.25 | 0.25 | 99 | 1008.8 |
| 20260509203853 | 50 | 349 | 0.0 | 0.0 | 0.00 | 0.25 | 0.25 | 99 | 1008.8 |
| 20260509203349 | 50 | 295 | 1.0 | 1.0 | 0.00 | 0.25 | 0.25 | 99 | 1009.0 |
| 20260509202847 | 50 | 347 | 0.0 | 0.0 | 0.00 | 0.25 | 0.25 | 99 | 1009.1 |
| 20260509202342 | 50 | 335 | 0.0 | 0.0 | 0.00 | 0.25 | 0.25 | 99 | 1009.2 |
| 20260509201837 | 50 | 336 | 0.0 | 0.0 | 0.00 | 0.25 | 0.25 | 99 | 1009.0 |
| 20260509201333 | 50 | 333 | 0.0 | 0.0 | 0.00 | 0.25 | 0.25 | 99 | 1009.0 |
| 20260509200830 | 50 | 322 | 0.0 | 0.0 | 0.00 | 0.25 | 0.25 | 99 | 1009.2 |
| 20260509200326 | 51 | 326 | 0.0 | 1.0 | 0.00 | 0.25 | 0.25 | 99 | 1009.2 |
| 20260509195823 | 51 | 355 | 0.0 | 0.0 | 0.00 | 0.25 | 0.25 | 99 | 1009.3 |
| 20260509195322 | 51 | 325 | 0.0 | 0.0 | 0.00 | 0.25 | 0.25 | 99 | 1009.4 |
| 20260509194822 | 51 | 348 | 0.0 | 0.0 | 0.00 | 0.25 | 0.25 | 99 | 1009.3 |
| 20260509194319 | 51 | 145 | 0.0 | 1.0 | 0.00 | 0.25 | 0.25 | 98 | 1009.4 |
| 20260509193815 | 51 | 336 | 1.0 | 1.0 | 0.00 | 0.25 | 0.25 | 97 | 1009.5 |
| 20260509193315 | 51 | 268 | 2.0 | 2.0 | 0.00 | 0.25 | 0.25 | 97 | 1009.3 |
| 20260509192812 | 51 | 272 | 2.0 | 2.0 | 0.00 | 0.25 | 0.25 | 98 | 1009.5 |
| 20260509192308 | 51 | 264 | 2.0 | 2.0 | 0.00 | 0.25 | 0.25 | 98 | 1009.3 |
| 20260509191803 | 51 | 129 | 2.0 | 2.0 | 0.00 | 0.25 | 0.25 | 98 | 1009.5 |
| 20260509191259 | 51 | 321 | 0.0 | 0.0 | 0.00 | 0.25 | 0.25 | 98 | 1009.4 |
| 20260509190755 | 51 | 88 | 1.0 | 1.0 | 0.00 | 0.25 | 0.25 | 98 | 1009.3 |
| 20260509190252 | 50 | 184 | 1.0 | 2.0 | 0.00 | 0.25 | 0.25 | 99 | 1009.6 |
| 20260509185750 | 51 | 321 | 0.0 | 0.0 | 0.00 | 0.25 | 0.25 | 99 | 1009.4 |
| 20260509185246 | 50 | 303 | 3.0 | 3.0 | 0.07 | 0.25 | 0.25 | 98 | 1009.7 |
| 20260509184743 | 50 | 284 | 1.0 | 1.0 | 0.07 | 0.25 | 0.25 | 98 | 1009.5 |
| 20260509184241 | 50 | 259 | 0.0 | 1.0 | 0.05 | 0.24 | 0.24 | 98 | 1009.6 |
| 20260509183737 | 50 | 279 | 1.0 | 2.0 | 0.12 | 0.24 | 0.24 | 98 | 1009.5 |
| 20260509183232 | 50 | 106 | 1.0 | 1.0 | 0.07 | 0.23 | 0.23 | 98 | 1009.6 |
| 20260509182728 | 50 | 308 | 0.0 | 1.0 | 0.07 | 0.23 | 0.23 | 98 | 1009.7 |
| 20260509182226 | 50 | 321 | 0.0 | 0.0 | 0.00 | 0.22 | 0.22 | 98 | 1009.7 |
| 20260509181723 | 50 | 335 | 0.0 | 1.0 | 0.05 | 0.22 | 0.22 | 99 | 1009.9 |
| 20260509181220 | 50 | 333 | 0.0 | 0.0 | 0.05 | 0.22 | 0.22 | 99 | 1009.7 |
| 20260509180717 | 50 | 149 | 1.0 | 1.0 | 0.00 | 0.21 | 0.21 | 98 | 1009.5 |
| 20260509180213 | 49 | 319 | 0.0 | 1.0 | 0.00 | 0.21 | 0.21 | 98 | 1009.7 |
| 20260509175710 | 50 | 341 | 0.0 | 0.0 | 0.07 | 0.21 | 0.21 | 99 | 1009.9 |
| 20260509175206 | 50 | 315 | 1.0 | 1.0 | 0.07 | 0.21 | 0.21 | 98 | 1009.7 |
| 20260509174702 | 50 | 293 | 0.0 | 0.0 | 0.00 | 0.20 | 0.20 | 98 | 1009.5 |
| 20260509174157 | 50 | 321 | 1.0 | 1.0 | 0.00 | 0.20 | 0.20 | 96 | 1009.7 |
| 20260509173654 | 50 | 271 | 1.0 | 1.0 | 0.00 | 0.20 | 0.20 | 97 | 1009.8 |
| 20260509173149 | 50 | 33 | 1.0 | 1.0 | 0.00 | 0.20 | 0.20 | 98 | 1009.7 |
| 20260509172646 | 50 | 107 | 0.0 | 1.0 | 0.05 | 0.20 | 0.20 | 98 | 1009.6 |
| 20260509172142 | 49 | 262 | 0.0 | 0.0 | 0.05 | 0.20 | 0.20 | 97 | 1009.9 |
| 20260509171638 | 49 | 32 | 0.0 | 0.0 | 0.00 | 0.19 | 0.19 | 98 | 1009.9 |
| 20260509171134 | 49 | 199 | 0.0 | 0.0 | 0.00 | 0.19 | 0.19 | 97 | 1010.1 |
| 20260509170631 | 49 | 182 | 0.0 | 1.0 | 0.00 | 0.19 | 0.19 | 98 | 1010.3 |
| 20260509170127 | 49 | 184 | 2.0 | 2.0 | 0.07 | 0.19 | 0.19 | 98 | 1010.3 |
| 20260509165625 | 49 | 324 | 0.0 | 0.0 | 0.07 | 0.19 | 0.19 | 98 | 1010.4 |
| 20260509165121 | 49 | 327 | 0.0 | 0.0 | 0.00 | 0.18 | 0.18 | 98 | 1010.5 |
| 20260509164617 | 49 | 282 | 2.0 | 2.0 | 0.00 | 0.18 | 0.18 | 98 | 1010.5 |
| 20260509164113 | 48 | 307 | 0.0 | 1.0 | 0.00 | 0.18 | 0.18 | 98 | 1010.5 |
| 20260509163611 | 48 | 305 | 0.0 | 0.0 | 0.00 | 0.18 | 0.18 | 98 | 1010.9 |
| 20260509163107 | 48 | 184 | 2.0 | 2.0 | 0.00 | 0.18 | 0.18 | 98 | 1010.9 |
| 20260509162604 | 48 | 316 | 0.0 | 0.0 | 0.00 | 0.18 | 0.18 | 98 | 1010.7 |
| 20260509162100 | 48 | 321 | 0.0 | 0.0 | 0.07 | 0.18 | 0.18 | 98 | 1010.9 |
| 20260509161557 | 48 | 175 | 1.0 | 2.0 | 0.07 | 0.18 | 0.18 | 98 | 1010.9 |
| 20260509161056 | 48 | 149 | 1.0 | 2.0 | 0.00 | 0.17 | 0.17 | 99 | 1011.1 |